This demonstration page uses our WeatherBlox Daily Observations layout. Learn more.

Left ArrowRight Arrow

41.86663, -103.66717

Hourly Observations for May 4, 2021

Temp ( °F °C ) Dew Point ( °F °C ) Humidity (%) Winds ( mph kmh ) Pressure ( in mb ) Visibility ( mi km ) Precip ( " mm )
12:53 am 00:53 Clear 36 2.2 31 -0.6 82 82 WNW 6 9 30.14 1021 10 16.0934 N/A
1:53 am 01:53 Clear 35 1.7 30 -1.1 82 82 N N/A 30.13 1020 10 16.0934 N/A
2:53 am 02:53 Clear 33 0.6 27 -2.8 78 78 N N/A 30.12 1020 10 16.0934 N/A
3:53 am 03:53 Clear 30 -1.1 25 -3.9 82 82 NNW 3 6 30.14 1021 10 16.0934 N/A
4:53 am 04:53 Clear 29 -1.7 23 -5 78 78 NNE 5 7 30.14 1021 10 16.0934 N/A
5:53 am 05:53 Sunny 31 -0.6 26 -3.3 82 82 N N/A 30.12 1020 10 16.0934 N/A
6:53 am 06:53 Sunny 36 2.2 30 -1.1 79 79 N N/A 30.12 1020 10 16.0934 N/A
7:53 am 07:53 Sunny 42 5.6 33 0.6 71 71 SE 6 9 30.11 1020 10 16.0934 N/A
8:53 am 08:53 Sunny 48 8.9 34 1.1 58 58 SSE 8 13 30.09 1019 10 16.0934 N/A
9:53 am 09:53 Sunny 56 13.3 30 -1.1 37 37 S 18 30 30.05 1018 10 16.0934 N/A
10:53 am 10:53 Partly Cloudy 59 15 32 undefined 36 36 S 17 28 30.03 1017 10 16.0934 N/A
11:53 am 11:53 Mostly Cloudy 59 15 30 -1.1 33 33 SSW 18 30 30.01 1016 10 16.0934 N/A
12:53 pm 12:53 Cloudy 60 15.6 31 -0.6 33 33 SSW 14 22 29.99 1016 10 16.0934 N/A
1:45 pm 13:45 Cloudy with Light Rain 56 13.3 37 2.8 49 49 S 13 20 29.91 1013 10 16.0934 0.001 0.001
1:53 pm 13:53 Cloudy with Light Rain 57 13.9 37 2.8 47 47 WSW 14 22 29.98 1015 10 16.0934 0.001 0.001
2:53 pm 14:53 Mostly Sunny 59 15 36 2.2 42 42 SSW 22 35 29.98 1015 10 16.0934 0.001 0.001
3:53 pm 15:53 Partly Cloudy 60 15.6 36 2.2 41 41 SSW 15 24 29.97 1015 10 16.0934 N/A
4:53 pm 16:53 Mostly Sunny 55 12.8 40 4.4 57 57 SSW 20 31 29.98 1015 10 16.0934 0.001 0.001
5:53 pm 17:53 Mostly Sunny 59 15 38 3.3 46 46 SW 8 13 29.96 1014 10 16.0934 N/A
6:53 pm 18:53 Partly Cloudy 56 13.3 37 2.8 49 49 SSW 12 19 29.95 1014 10 16.0934 N/A
7:53 pm 19:53 Mostly Sunny 53 11.7 38 3.3 57 57 S 6 9 29.95 1014 10 16.0934 N/A
8:53 pm 20:53 Mostly Clear 50 10 37 2.8 61 61 SE 6 9 29.97 1015 10 16.0934 N/A
9:53 pm 21:53 Clear 43 6.1 35 1.7 74 74 ESE 6 9 29.98 1015 10 16.0934 N/A
10:53 pm 22:53 Clear 40 4.4 34 1.1 79 79 ENE 6 9 29.99 1016 10 16.0934 N/A
11:53 pm 23:53 Mostly Cloudy 40 4.4 35 1.7 83 83 NW 8 13 30.02 1017 10 16.0934 N/A

Powered by AerisWeather